Location: Grantsboro
(35.1404°N, 76.8424°W)
Time: 19:09:39
(UTC+00:00)

IRS-1C Rocket - Pass Details

Date: 18 January 2020
Orbit: 801 x 805 km, 99.0° (Epoch: 28 February)

Event Time Altitude Azimuth Distance (km) Brightness Sun altitude
Rises 11:22:09 0° 15° (NNE) 3,319 7.3 -10.8°
Reaches altitude 10° 11:24:30 10° 17° (NNE) 2,385 6.6 -10.3°
Maximum altitude 11:29:46 76° 102° (ESE) 830 4.4 -9.3°
Drops below altitude 10° 11:35:01 10° 189° (S) 2,373 6.7 -8.3°
Sets 11:37:20 0° 191° (S) 3,300 7.4 -7.9°
